Zurück zum Katalog

STARLINK-30703

AktivKommunikationVLEO
NORAD 57954·PAYLOAD·🇺🇸 United States

Gestartet Sep 25, 2023 von Vandenberg Space Force Base

Loading…

Nächste Überflüge (nächste 24 Stunden)

TLE

AktuellSource: CelesTrak SupGP

Epoche: Sep 15, 2026, 03:01 UTC

1 57954C 23148V   26258.12618056 -.00059425  00000+0 -17559-2 0  2583
2 57954  53.1575 210.5539 0001311  85.6631  96.2414 15.34416428    13

Verfolge STARLINK-30703 in Echtzeit mit AllMySat

Download on the App Store